This demonstration page uses our WeatherBlox Daily Observations layout. Learn more.

Left ArrowRight Arrow

39.92423, -83.80882

Hourly Observations for January 17, 2020

Temp ( °F °C ) Dew Point ( °F °C ) Humidity (%) Winds ( mph kmh ) Pressure ( in mb ) Visibility ( mi km ) Precip ( " mm )
12:56 am 00:56 Cloudy 22 -5.6 16 -8.9 78 78 NNW 10 17 30.75 1041 10 16.0934 0 0
1:56 am 01:56 Cloudy 22 -5.6 17 -8.3 82 82 N 10 17 30.78 1042 10 16.0934 0 0
2:56 am 02:56 Cloudy 21 -6.1 15 -9.4 78 78 NNE 9 15 30.8 1043 10 16.0934 0 0
3:56 am 03:56 Cloudy 22 -5.6 16 -8.9 78 78 NNE 13 20 30.79 1043 10 16.0934 0 0
4:41 am 04:41 Partly Cloudy 21 -6 16 -9 80 80 NE 14 22 30.81 1043 10 16.0934 0 0
4:53 am 04:53 Mostly Cloudy 21 -6 16 -9 80 80 NE 10 17 30.81 1043 10 16.0934 0 0
4:56 am 04:56 Mostly Cloudy 21 -6.1 16 -8.9 81 81 NE 15 24 30.78 1042 10 16.0934 0 0
5:56 am 05:56 Cloudy 20 -6.7 15 -9.4 81 81 NE 7 11 30.8 1043 10 16.0934 0 0
6:56 am 06:56 Cloudy 22 -5.6 17 -8.3 82 82 ENE 13 20 30.81 1044 10 16.0934 0 0
7:23 am 07:23 Partly Cloudy 21 -6 16 -9 80 80 ENE 9 15 30.84 1044 10 16.0934 0 0
7:56 am 07:56 Sunny 19 -7.2 16 -8.9 88 88 E 8 13 30.82 1044 10 16.0934 0 0
8:56 am 08:56 Sunny 21 -6.1 17 -8.3 85 85 ENE 8 13 30.83 1044 10 16.0934 0 0
9:56 am 09:56 Sunny 24 -4.4 17 -8.3 75 75 E 9 15 30.81 1043 10 16.0934 0 0
10:56 am 10:56 Sunny 26 -3.3 18 -7.8 71 71 E 10 17 30.82 1044 10 16.0934 0 0
11:56 am 11:56 Sunny 27 -2.8 18 -7.8 69 69 ESE 15 24 30.77 1042 10 16.0934 0 0
12:56 pm 12:56 Sunny 28 -2.2 19 -7.2 69 69 ESE 14 22 30.73 1041 10 16.0934 0 0
1:56 pm 13:56 Sunny 31 -0.6 21 -6.1 67 67 ESE 15 24 30.68 1039 10 16.0934 0 0
2:56 pm 14:56 Sunny 30 -1.1 21 -6.1 69 69 ESE 14 22 30.68 1039 10 16.0934 0 0
3:56 pm 15:56 Sunny 29 -1.7 21 -6.1 72 72 ESE 15 24 30.66 1038 10 16.0934 0 0
4:56 pm 16:56 Mostly Sunny 30 -1.1 22 -5.6 72 72 SE 8 13 30.64 1038 10 16.0934 0 0
5:56 pm 17:56 Mostly Clear 30 -1.1 22 -5.6 72 72 ESE 14 22 30.6 1036 10 16.0934 0 0
6:56 pm 18:56 Cloudy 30 -1.1 23 -5 75 75 E 17 28 30.56 1035 10 16.0934 0 0
7:56 pm 19:56 Cloudy 30 -1.1 23 -5 75 75 E 18 30 30.55 1035 10 16.0934 0 0
8:56 pm 20:56 Cloudy 30 -1.1 22 -5.6 72 72 ESE 13 20 30.53 1034 10 16.0934 0 0
9:56 pm 21:56 Cloudy 30 -1.1 22 -5.6 72 72 E 21 33 30.45 1031 10 16.0934 0 0
10:56 pm 22:56 Cloudy with Light Snow 30 -1.1 22 -5.6 72 72 SE 15 24 30.45 1031 10 16.0934 0.001 0.001
11:56 pm 23:56 Windy with Snow Likely 29 -1.7 26 -3.3 89 89 E 20 31 30.34 1028 8 12.87472 0.001 0.001

Powered by AerisWeather